Find Local Weather

World > North America > United States > Washington

Cle Elum, Washington Regional Weather

Lat: 47.19N, Lon: 120.93W
Wx Zone: WAZ520
Feedback
Expires:201805231700;;411176
ASUS46 KSEW 231610
RWRWA 

WASHINGTON REGIONAL WEATHER ROUNDUP
NATIONAL WEATHER SERVICE SEATTLE WA
900 AM PDT WED MAY 23 2018

NOTE:"FAIR" INDICATES FEW OR NO CLOUDS BELOW 12,000 FEET WITH NO 
SIGNIFICANT WEATHER AND/OR OBSTRUCTIONS TO VISIBILITY.


WAZ026-027-041>044-520-521-231700-
EAST SLOPES
  
CITY           SKY/WX    TMP DP  RH WIND       PRES   REMARKS
OMAK           SUNNY     69  53  56 N6        29.80F                  
WENATCHEE      SUNNY     67  48  50 W9        29.79F                  
ELLENSBURG     SUNNY     67  52  58 E5        29.80F                  
YAKIMA         SUNNY     74  50  42 NW8       29.77S                  
SUNNYSIDE ARPT PTSUNNY   66  51  59 CALM      29.76S                  
YAKIMA TC      FAIR      74  47  37 N3        29.75F                  
$$


SKY/WX - Weather  TMP - Temperature  DP - Dewpoint  RH - Relative Humidity
WIND - Wind Direction/Speed PRES - Barometric Pressure